Location: T�chigga el Be�da
(16.4766°N, 9.3887°W)
Time: 14:24:59
(UTC+00:00)

Cosmos 1697 Rocket - Pass Details

Date: 27 February 2020
Orbit: 831 x 844 km, 71.0° (Epoch: 29 March)

Event Time Altitude Azimuth Distance (km) Brightness Sun altitude
Rises 19:58:37 0° 174° (S) 3,361 5.8 -18.6°
Reaches altitude 10° 20:01:19 10° 164° (SSE) 2,429 5.0 -19.3°
Enters shadow 20:04:40 27° 131° (SE) 1,548 3.7 -20.1°
